Terug naar catalogus

CZ-2D DEB

ActiefSSO
NORAD 38178·DEBRIS·🇨🇳 China

Gelanceerd Nov 20, 2011 vanaf Jiuquan Satellite Launch Center

Loading…

Volgende Passages (komende 24 uur)

TLE

VersSource: Space-Track

Epoch: Sep 13, 2026, 07:39 UTC

1 38178U 11068F   26256.31896041  .00000882  00000-0  27292-3 0  9999
2 38178  98.7216 287.1259 0119116 155.8628 266.1138 14.39815263770799

Volg CZ-2D DEB in realtime met AllMySat

Download on the App Store